DW7098 Weather Reports


time (UTC)temp
C
wind
direction
speed
KPH
gust
KPH
rain 1hr
cm
rain 24hr
cm
rain mn
cm
humidity
%
barometer
mb
20260903043033 14 237 0.0 1.6 0.00 0.00 0.00
20260903040112 14 208 0.0 3.2 0.00 0.00 0.00
20260903033047 15 200 0.0 4.8 0.00 0.00 0.00
20260903030106 14 216 0.0 4.8 0.00 0.00 0.00
20260903023058 15 205 1.6 9.7 0.00 0.00 0.00
20260903020100 15 215 4.8 20.9 0.00 0.00 0.00
20260903013056 16 348 1.6 12.9 0.00 0.00 0.00
20260903010059 16 241 6.4 12.9 0.00 0.00 0.00
20260903003053 16 260 1.6 19.3 0.00 0.00 0.00
20260902233045 17 282 6.4 12.9 0.00 0.00 0.00
20260902230113 15 179 4.8 16.1 0.00 0.00 0.00
20260902223045 15 249 4.8 27.4 0.00 0.00 0.00
20260902220054 15 15 4.8 12.9 0.00 0.00 0.00
20260902213032 14 78 6.4 14.5 0.00 0.00 0.00
20260902210055 14 63 4.8 16.1 0.00 0.00 0.00
20260902203037 14 44 6.4 14.5 0.00 0.00 0.00
20260902200106 15 79 3.2 12.9 0.00 0.00 0.00
20260902193048 15 60 4.8 12.9 0.00 0.00 0.00
20260902190055 15 60 4.8 11.3 0.00 0.00 0.00
20260902183037 15 64 1.6 8.0 0.00 0.00 0.00
20260902173043 15 86 1.6 8.0 0.00 0.00 0.00
20260902170052 15 56 0.0 8.0 0.00 0.00 0.00
20260902160106 15 72 3.2 9.7 0.00 0.00 0.00
20260902153045 14 55 1.6 9.7 0.00 0.00 0.00
20260902150056 14 67 1.6 9.7 0.00 0.00 0.00
20260902143036 14 66 3.2 8.0 0.00 0.00 0.00
20260902133042 14 75 4.8 8.0 0.00 0.00 0.00
20260902130054 14 75 1.6 8.0 0.00 0.00 0.00
20260902123037 15 48 3.2 4.8 0.00 0.00 0.00
20260902113027 15 56 0.0 8.0 0.00 0.00 0.00
20260902110052 14 271 0.0 3.2 0.00 0.00 0.00
20260902103050 14 49 1.6 4.8 0.00 0.00 0.00
20260902093043 15 53 0.0 1.6 0.00 0.00 0.00
20260902090050 15 91 0.0 4.8 0.00 0.00 0.00
20260902083033 15 70 3.2 4.8 0.00 0.00 0.00
20260902080059 15 76 3.2 6.4 0.00 0.00 0.00
20260902073041 15 93 0.0 3.2 0.00 0.00 0.00
20260902070109 15 56 0.0 1.6 0.00 0.00 0.00
20260902063044 15 70 0.0 3.2 0.00 0.00 0.00
20260902060055 15 237 0.0 0.0 0.00 0.00 0.00
20260902050107 15 42 0.0 1.6 0.00 0.00 0.00